Temp
9 9 9 8 8 8 8 8 8 8 8 8 7 6 6 6 6 7 6 7 7 7 8 7 7 7 7 7 7 7 7 6 7 7 6 6 6 6 6 6 6 6 6
8 8 9 9 8 7 8 8 8 7 7 7 6 5 6 6 5 6 6 6 7 7 7 7 6 6 7 7 7 7 7 7 6 6 6 6 6 6 6 6 6 6 6
8 8 8 8 8 7 8 7 7 7 6 6 5 5 5 5 5 5 5 5 6 6 6 7 6 6 6 7 7 6 6 7 7 6 7 6 6 6 6 6 5 5 5
8 8 7 8 7 7 7 7 6 6 6 5 5 5 4 5 5 5 5 5 6 6 6 6 6 6 6 6 6 6 7 6 6 6 6 6 6 6 5 5 5 5 5
7 7 7 7 7 6 6 6 6 6 5 5 5 4 4 5 4 5 5 5 6 5 5 6 6 6 6 6 6 6 6 6 6 6 5 6 5 5 5 5 5 5 5
7 7 7 6 6 6 5 5 5 4 5 3 4 4 4 4 4 4 5 5 5 5 5 5 5 6 6 6 6 5 5 5 5 5 5 5 5 5 5 5 5 5 5
7 7 6 6 6 6 5 5 5 3 3 2 2 3 3 3 4 4 5 4 4 5 6 5 5 5 5 5 5 5 5 5 5 4 4 5 5 5 5 5 5 5 5
7 7 6 6 6 6 5 5 5 4 3 3 2 3 4 3 3 4 4 5 4 4 5 5 5 5 5 5 5 4 4 4 4 4 4 4 4 5 5 5 5 5 5
6 6 6 6 6 6 5 5 4 4 3 3 3 3 3 3 2 2 2 4 4 4 4 5 5 5 4 4 4 4 4 4 4 4 4 4 4 4 5 5 5 5 4
7 6 6 6 6 5 5 4 3 2 3 3 3 3 2 3 2 2 3 2 3 4 4 4 4 4 4 4 4 3 3 3 4 4 4 4 4 4 4 5 4 4 4
7 6 6 6 6 5 4 4 3 2 3 3 3 3 1 3 2 2 3 3 3 3 4 4 4 4 4 4 3 3 3 3 3 3 3 3 3 4 4 4 4 4 4
7 6 6 6 6 5 4 4 3 2 2 3 3 3 2 1 3 1 2 2 3 3 3 3 3 3 3 4 3 3 3 3 3 3 3 3 3 3 3 3 3 3 3
7 6 6 6 6 5 4 4 3 3 3 3 2 2 2 2 2 1 1 1 2 2 3 3 3 3 3 3 3 3 3 2 3 3 3 3 3 3 2 2 3 3 3
6 6 6 6 6 5 4 4 3 4 3 3 2 2 2 2 2 0 1 1 2 2 2 2 3 3 3 3 3 2 2 2 2 2 2 2 2 2 2 2 3 3 3
6 6 6 6 6 3 3 3 4 3 3 3 3 2 2 2 2 1 -0 0 2 2 2 2 2 3 3 2 2 2 2 2 2 2 2 2 2 2 2 2 2 2 2
6 6 6 6 6 4 4 3 3 3 3 3 3 3 2 2 1 1 -0 0 1 1 1 2 2 3 2 2 2 1 1 2 1 1 1 1 2 1 2 2 2 2 2
6 6 6 6 6 5 4 3 3 3 3 3 3 3 3 2 2 1 -0 -1 1 1 1 1 2 2 1 2 1 1 1 1 1 1 1 1 2 1 1 1 1 1 2
6 6 6 5 5 5 4 3 3 3 3 3 2 2 3 2 1 1 -0 -1 -0 1 1 1 2 1 1 1 1 1 1 1 1 1 1 1 1 1 1 1 1 1 1
6 5 5 5 5 4 3 3 3 3 4 4 3 2 2 2 1 -1 -2 -2 -0 -1 -0 0 0 1 1 2 1 1 0 1 1 0 0 0 0 1 1 0 1 1 1
6 5 5 5 4 2 2 3 3 3 3 2 2 2 1 0 -0 -1 -3 -3 -2 -1 -2 -2 -1 -0 1 1 1 0 0 0 0 0 0 0 0 0 1 1 1 1 0
6 5 5 4 2 2 2 2 2 3 2 2 1 0 0 0 -0 -3 -3 -3 -2 -1 -1 -1 -1 -0 1 1 0 0 0 -0 -0 -0 -0 -0 0 0 0 -0 1 1 -0
6 6 5 4 2 2 2 2 2 1 1 1 1 0 -0 -1 -3 -3 -4 -3 -2 -1 -1 -1 -1 0 0 -0 -0 0 0 0 0 -0 -0 -0 0 0 0 -0 -0 0 0
6 6 6 4 3 2 2 1 1 1 1 1 0 0 -2 -3 -4 -3 -3 -2 -2 -2 -1 -2 -1 -0 0 -0 -0 -0 -0 -0 -0 -0 -0 -0 -0 -0 -0 -0 -0 -0 -1
6 6 6 4 3 3 2 2 1 1 1 1 0 0 -0 -1 -2 -2 -2 -2 -1 -1 -1 -1 -1 -1 -0 -0 -0 0 0 0 -0 -1 -0 0 -0 -0 -1 -1 -1 -1 -1
6 6 6 5 4 3 2 1 1 1 1 0 0 -0 -1 -2 -2 -2 -1 -1 -2 -1 -1 -1 -1 -1 -0 -0 0 -0 0 0 0 0 -0 -0 0 0 0 -0 -0 -1 -1
7 6 6 6 5 3 2 1 1 1 0 0 0 0 0 -1 -2 -2 -1 -2 -2 -2 -1 -1 -1 -0 -0 -0 -0 -0 0 0 1 0 1 0 -1 -0 -0 -0 -0 -1 -1
Height
3126 3124 3125 3125 3126 3127 3128 3129 3130 3130 3130 3131 3132 3134 3136 3137 3138 3139 3141 3142 3143 3144 3146 3146 3147 3150 3151 3152 3154 3155 3156 3156 3157 3157 3159 3160 3161 3162 3164 3164 3165 3166 3166
3124 3123 3124 3123 3124 3125 3126 3127 3127 3128 3128 3129 3131 3132 3135 3136 3137 3138 3139 3142 3144 3144 3146 3148 3149 3150 3152 3153 3154 3156 3156 3157 3158 3158 3159 3161 3162 3162 3164 3165 3165 3166 3167
3122 3120 3120 3121 3121 3122 3123 3124 3124 3124 3125 3126 3128 3131 3134 3135 3136 3137 3137 3141 3142 3142 3145 3149 3150 3151 3152 3153 3155 3155 3157 3156 3158 3159 3160 3162 3163 3164 3164 3165 3166 3168 3169
3120 3118 3117 3118 3118 3119 3120 3120 3120 3121 3122 3123 3124 3126 3130 3132 3134 3135 3137 3138 3140 3143 3146 3148 3149 3149 3153 3154 3154 3155 3156 3158 3159 3159 3161 3162 3163 3164 3165 3166 3168 3169 3170
3118 3116 3116 3115 3115 3116 3117 3117 3119 3119 3117 3117 3119 3121 3125 3130 3132 3133 3136 3139 3140 3141 3144 3146 3149 3151 3152 3153 3155 3156 3158 3159 3159 3160 3161 3162 3163 3164 3166 3166 3169 3170 3171
3114 3114 3112 3112 3111 3111 3112 3109 3111 3112 3111 3105 3115 3117 3120 3125 3130 3130 3134 3136 3137 3139 3142 3147 3148 3150 3152 3154 3154 3156 3157 3158 3159 3160 3161 3162 3164 3165 3167 3167 3169 3171 3171
3112 3110 3109 3108 3107 3106 3106 3105 3106 3105 3105 3091 3092 3102 3115 3121 3125 3130 3133 3134 3136 3139 3142 3146 3148 3150 3152 3153 3155 3156 3157 3158 3159 3160 3161 3163 3164 3166 3167 3168 3170 3170 3172
3109 3107 3105 3103 3102 3101 3099 3100 3101 3100 3102 3105 3100 3112 3113 3117 3121 3122 3131 3133 3136 3138 3142 3144 3148 3150 3151 3153 3155 3156 3157 3159 3159 3160 3163 3164 3165 3166 3168 3169 3171 3171 3171
3104 3104 3101 3098 3097 3096 3095 3093 3095 3096 3097 3100 3102 3104 3106 3104 3112 3120 3127 3133 3134 3137 3140 3143 3147 3150 3151 3154 3155 3156 3157 3159 3160 3161 3163 3164 3166 3167 3169 3169 3171 3171 3172
3100 3099 3097 3094 3091 3090 3090 3090 3090 3091 3093 3096 3100 3101 3102 3101 3110 3119 3126 3129 3131 3136 3139 3142 3146 3149 3151 3153 3154 3156 3158 3159 3159 3161 3163 3164 3166 3167 3168 3170 3171 3171 3173
3095 3093 3092 3090 3088 3085 3085 3086 3084 3086 3091 3093 3095 3098 3100 3103 3107 3116 3123 3128 3130 3134 3138 3140 3144 3148 3152 3152 3154 3155 3157 3158 3159 3162 3163 3165 3166 3168 3169 3170 3171 3172 3173
3090 3089 3087 3086 3084 3081 3081 3082 3082 3082 3086 3089 3093 3095 3095 3093 3105 3113 3120 3125 3129 3132 3137 3140 3144 3148 3150 3152 3152 3154 3156 3157 3158 3160 3163 3165 3166 3167 3168 3169 3170 3171 3173
3085 3083 3082 3079 3077 3076 3076 3079 3080 3080 3084 3086 3091 3093 3095 3101 3104 3110 3117 3122 3126 3130 3135 3139 3143 3147 3149 3151 3152 3153 3155 3157 3159 3161 3162 3165 3165 3167 3168 3170 3171 3172 3173
3080 3079 3076 3074 3069 3068 3071 3073 3076 3077 3079 3084 3087 3089 3093 3097 3100 3107 3115 3119 3123 3129 3135 3139 3142 3144 3147 3149 3151 3153 3155 3156 3158 3161 3162 3165 3165 3167 3169 3170 3171 3171 3172
3075 3074 3073 3070 3064 3064 3066 3069 3071 3075 3077 3079 3083 3083 3088 3090 3098 3104 3112 3117 3121 3127 3134 3137 3141 3144 3146 3148 3150 3152 3154 3156 3158 3160 3162 3163 3165 3166 3169 3169 3170 3171 3171
3071 3070 3068 3066 3063 3060 3062 3065 3067 3071 3073 3076 3079 3081 3084 3090 3092 3102 3107 3115 3120 3126 3132 3136 3140 3143 3145 3147 3150 3151 3153 3155 3156 3159 3161 3163 3164 3166 3167 3169 3170 3170 3170
3068 3065 3064 3062 3060 3058 3059 3062 3064 3065 3068 3072 3074 3074 3078 3085 3089 3096 3102 3112 3119 3125 3130 3134 3138 3140 3143 3146 3148 3150 3152 3154 3156 3158 3160 3162 3164 3165 3167 3167 3168 3168 3169
3064 3061 3060 3058 3056 3054 3055 3057 3059 3062 3063 3065 3068 3069 3072 3075 3081 3090 3097 3111 3118 3124 3129 3133 3136 3138 3142 3144 3147 3149 3151 3153 3155 3157 3158 3160 3162 3163 3164 3165 3166 3166 3167
3061 3058 3056 3054 3052 3050 3051 3053 3055 3058 3058 3060 3063 3065 3070 3077 3082 3087 3095 3109 3117 3123 3128 3131 3135 3137 3139 3142 3146 3149 3151 3152 3154 3156 3157 3159 3160 3161 3163 3164 3164 3164 3164
3057 3054 3052 3050 3048 3046 3049 3050 3052 3054 3054 3056 3059 3065 3070 3074 3079 3085 3096 3108 3113 3117 3121 3127 3132 3135 3141 3143 3145 3148 3150 3152 3153 3155 3156 3157 3159 3160 3160 3160 3161 3160 3160
3054 3051 3049 3046 3045 3046 3048 3049 3051 3053 3056 3060 3066 3070 3074 3075 3080 3088 3099 3102 3108 3113 3121 3127 3131 3137 3139 3141 3144 3146 3148 3151 3152 3153 3154 3155 3156 3157 3158 3157 3154 3154 3155
3052 3049 3046 3043 3044 3046 3048 3050 3051 3054 3059 3063 3067 3068 3071 3075 3080 3085 3092 3104 3110 3117 3123 3127 3132 3135 3137 3140 3142 3144 3146 3149 3149 3150 3151 3152 3153 3153 3154 3153 3152 3149 3149
3049 3048 3045 3042 3043 3045 3047 3050 3052 3055 3059 3061 3064 3067 3070 3074 3079 3087 3097 3105 3111 3116 3120 3124 3129 3132 3135 3138 3140 3143 3144 3145 3145 3146 3147 3148 3149 3149 3148 3148 3149 3148 3144
3047 3046 3044 3042 3042 3044 3046 3048 3051 3054 3057 3062 3063 3065 3067 3072 3080 3089 3097 3103 3108 3113 3117 3122 3126 3129 3132 3135 3137 3140 3140 3141 3142 3143 3142 3143 3144 3143 3144 3143 3142 3142 3140
3043 3044 3043 3042 3042 3042 3044 3047 3048 3052 3056 3059 3062 3066 3068 3075 3081 3087 3094 3098 3105 3110 3115 3118 3123 3126 3129 3131 3133 3135 3136 3137 3139 3140 3139 3138 3136 3138 3139 3138 3137 3135 3134
3041 3042 3042 3041 3040 3041 3043 3045 3047 3050 3054 3056 3060 3064 3069 3074 3081 3086 3092 3096 3103 3107 3110 3115 3119 3122 3125 3127 3129 3130 3132 3133 3134 3134 3134 3135 3132 3130 3130 3130 3129 3129 3126
Wind_Speed
13 12 11 10 15 20 20 18 14 15 15 15 13 10 10 9 7 5 3 2 5 8 10 11 11 11 10 11 10 10 10 10 10 9 9 9 8 6 5 4 4 4 5
17 17 12 13 17 21 22 21 19 18 19 19 14 12 12 13 10 8 4 3 5 7 8 9 10 11 12 12 12 11 11 11 10 9 8 7 7 7 6 6 5 5 5
17 16 10 14 18 23 26 26 23 22 23 22 17 15 15 15 13 10 6 4 5 4 8 11 10 12 12 13 13 11 12 11 11 9 7 6 6 7 6 6 6 7 7
15 13 9 14 19 25 30 27 25 26 26 27 22 19 18 18 14 11 8 7 6 6 11 11 11 10 12 11 12 13 12 10 9 8 7 7 8 7 7 8 10 10 11
13 13 13 12 20 26 31 32 30 28 30 33 29 24 19 21 17 18 11 8 8 10 11 12 13 13 13 13 13 12 10 9 8 7 7 7 9 10 11 11 11 11 10
13 14 18 16 18 24 31 36 35 37 28 40 32 26 23 26 18 16 16 8 6 9 11 13 13 13 14 14 13 12 11 10 8 7 8 9 10 11 12 12 11 10 10
16 16 18 18 20 23 31 36 37 42 40 25 28 13 14 25 26 22 20 12 11 13 14 13 13 15 15 14 13 11 9 9 8 8 9 10 10 11 11 11 11 10 9
20 19 22 19 22 24 29 31 35 31 26 32 38 15 23 30 31 25 23 18 15 15 15 15 15 16 15 13 12 11 10 9 8 8 9 10 10 11 11 10 10 9 8
25 23 24 21 22 23 26 31 31 37 37 21 21 19 28 39 38 22 25 22 16 16 16 16 16 15 14 13 12 11 10 8 10 10 10 10 11 11 10 10 9 8 9
23 24 24 21 23 23 24 27 25 28 22 22 24 19 31 36 40 23 16 22 18 17 18 18 17 15 14 14 12 12 11 9 9 9 10 11 10 11 10 8 9 9 9
24 24 23 21 21 24 26 28 28 25 28 21 13 16 17 31 29 24 22 21 20 18 19 19 17 16 14 13 14 13 13 10 10 9 10 11 11 10 10 9 10 9 8
23 25 23 22 24 25 25 25 22 26 29 32 29 23 22 26 28 27 26 25 20 20 21 20 18 17 14 12 13 12 11 12 13 12 11 10 11 11 11 11 10 9 7
23 25 22 23 26 27 26 21 19 25 32 29 30 25 18 32 28 32 30 30 25 23 23 23 20 18 15 13 12 12 12 13 11 11 11 12 11 11 11 10 8 7 5
23 23 22 23 27 23 25 24 26 15 30 32 30 29 23 32 38 37 35 32 28 25 25 25 22 18 16 15 14 12 13 12 11 10 11 12 12 11 9 8 7 6 6
24 23 21 22 24 22 21 25 26 24 22 28 27 23 26 26 43 38 39 34 30 27 27 24 20 18 15 14 13 13 11 10 9 10 12 12 11 10 9 7 6 6 5
23 21 21 21 20 18 23 22 24 29 28 28 31 30 24 35 44 41 39 33 34 32 28 24 20 18 16 14 13 12 11 11 10 11 12 11 10 9 8 7 6 6 7
22 23 23 20 18 18 22 24 22 27 32 30 30 31 29 37 49 46 42 36 33 32 29 26 22 19 16 15 13 10 9 9 9 9 10 11 10 9 9 8 9 8 10
22 22 20 20 18 20 21 20 23 24 27 28 25 27 35 58 56 56 40 37 35 32 28 26 22 19 17 14 12 10 9 8 8 9 11 11 11 10 9 11 12 12 13
21 20 19 20 19 20 20 20 21 21 21 16 21 22 38 52 54 34 46 39 31 29 27 24 21 16 13 10 12 11 10 9 9 9 9 9 10 12 12 14 15 16 16
20 18 19 20 19 17 18 18 17 15 10 19 30 43 49 47 45 43 33 33 38 39 30 24 17 18 18 16 14 12 10 9 9 9 8 9 11 13 16 18 19 20 20
19 15 17 17 15 15 17 17 15 15 19 27 29 30 37 42 38 40 41 43 43 34 27 24 24 21 20 17 13 10 9 9 9 9 10 12 15 15 13 17 21 20 19
17 13 16 12 18 16 15 16 16 20 21 20 22 19 26 36 42 50 47 45 30 27 28 26 27 26 20 18 15 8 14 11 9 10 12 14 17 19 19 23 21 22 25
15 10 11 9 18 18 19 18 24 23 22 21 15 15 39 42 49 48 43 37 35 34 28 31 30 24 20 18 16 11 11 11 12 12 13 17 19 21 24 27 25 28 32
12 9 8 8 16 19 18 23 23 23 23 19 16 12 20 35 43 42 38 36 30 34 33 31 26 21 20 19 17 14 13 13 13 14 20 20 22 23 25 29 30 31 29
11 10 7 6 14 16 17 21 23 25 19 19 21 16 21 39 39 39 40 35 34 31 31 33 26 26 23 20 18 17 17 16 17 19 23 27 29 28 30 29 33 32 34
11 12 8 5 6 15 18 21 21 27 22 25 27 23 25 39 40 41 36 34 32 31 30 27 27 25 22 22 20 19 19 20 21 24 27 27 30 34 34 36 38 38 32
Wind_Direction
318 313 317 268 233 230 229 233 251 234 217 214 228 223 212 204 205 188 183 255 207 204 195 175 170 180 181 181 177 173 167 164 163 160 159 162 158 145 147 128 120 116 110
304 301 286 269 246 241 230 243 240 233 218 216 222 217 226 219 206 197 178 249 222 199 195 201 183 186 181 176 174 169 163 167 159 167 163 157 146 145 151 145 140 131 125
305 295 287 259 256 237 231 247 240 239 225 215 217 220 217 227 224 229 215 227 244 201 207 207 196 185 179 180 168 160 168 163 166 164 149 144 154 159 154 149 129 123 119
333 328 284 251 256 242 238 243 241 241 229 216 213 208 214 220 227 223 230 242 266 228 209 204 201 186 186 172 164 167 163 159 156 159 160 155 154 153 147 130 125 123 116
322 314 312 280 254 247 244 248 246 246 233 220 210 203 213 220 219 220 218 217 238 215 212 203 199 187 179 170 164 162 155 161 163 166 153 147 144 146 135 128 124 121 117
317 312 308 284 263 248 248 248 248 239 235 220 206 201 203 214 218 204 201 231 221 214 206 212 193 185 176 168 165 166 159 159 169 124 142 143 142 136 133 132 132 130 127
307 309 302 290 272 262 252 251 257 258 246 247 177 200 205 222 207 213 211 201 215 200 202 199 199 181 173 170 170 165 155 159 148 148 151 149 147 143 138 136 138 131 125
301 300 300 286 278 270 257 253 259 260 245 249 241 237 269 241 219 196 210 206 207 196 194 190 192 182 174 172 167 157 157 157 153 158 157 150 146 144 147 140 134 133 131
293 298 298 285 275 271 256 249 261 263 241 223 238 267 273 245 227 181 207 209 194 193 189 186 186 183 174 168 162 157 158 164 156 150 145 146 151 147 145 142 146 142 138
295 296 297 280 278 271 258 248 278 249 230 228 244 284 280 190 196 182 199 178 185 188 189 181 183 181 173 167 157 155 154 161 147 152 152 150 154 151 149 155 150 146 146
296 298 295 276 280 269 259 252 280 247 235 227 245 258 253 193 178 178 185 181 186 187 187 179 180 180 180 164 159 157 155 152 150 162 159 158 157 158 159 160 156 148 150
296 299 290 284 279 268 259 260 268 249 231 242 246 254 255 180 183 184 180 182 186 182 183 177 178 180 172 175 160 158 162 161 167 167 166 167 169 167 164 166 163 159 162
298 299 290 288 289 256 245 243 251 231 233 240 239 248 246 220 207 183 184 182 185 181 181 178 177 178 172 173 166 165 162 172 176 173 174 182 174 176 174 173 177 180 187
300 296 293 298 303 250 234 234 230 244 234 237 241 239 235 217 217 188 187 181 178 180 184 179 182 178 178 173 170 166 173 178 191 185 186 189 176 181 186 189 200 212 230
298 293 291 300 306 236 223 229 227 231 224 228 242 230 254 240 201 206 190 179 182 185 185 182 183 185 177 170 173 174 183 192 202 194 196 193 186 190 201 206 211 217 229
292 291 289 296 300 245 230 224 235 226 231 233 240 247 219 220 202 199 184 179 180 187 181 184 183 177 172 173 181 172 178 189 195 197 196 193 194 201 210 217 223 235 249
286 291 284 290 294 248 232 224 231 227 227 235 240 240 236 211 201 190 179 177 181 181 181 180 181 178 175 178 175 173 183 190 201 205 201 203 207 213 226 237 250 261 269
289 290 280 288 289 261 231 231 227 230 236 244 242 238 216 196 204 189 174 174 180 181 180 178 175 175 173 173 174 177 186 190 196 206 211 211 216 228 253 264 266 272 283
295 289 283 287 284 251 229 228 225 232 248 230 217 227 215 198 191 211 164 176 180 184 178 164 166 164 170 180 187 188 188 191 200 208 220 230 243 257 264 275 280 283 286
298 291 288 293 265 231 210 218 236 240 248 234 211 196 190 188 201 175 166 183 183 180 165 171 177 188 195 189 190 194 198 205 211 222 232 247 258 269 281 282 282 284 285
298 290 296 290 241 212 206 223 219 225 200 203 197 187 213 216 188 159 186 188 190 165 177 195 215 195 187 184 183 188 200 217 230 243 252 262 270 273 277 298 305 298 283
295 289 303 280 223 222 208 212 214 193 193 201 218 236 187 173 168 183 185 189 174 186 217 215 202 197 196 197 207 241 219 235 246 259 266 269 278 280 282 286 297 300 305
291 281 303 259 208 223 212 210 201 211 223 225 241 221 177 180 189 189 184 187 210 207 197 194 199 199 200 198 215 222 225 246 258 255 264 278 280 278 288 293 296 288 294
284 265 284 247 213 210 220 209 215 225 226 236 251 239 214 209 193 185 187 196 205 201 205 196 200 204 212 214 221 231 243 254 268 274 284 280 278 282 291 291 286 287 288
276 249 256 233 226 225 223 211 218 225 235 240 233 217 200 183 176 185 193 192 206 211 209 200 205 214 218 225 227 236 247 261 271 276 284 290 290 289 284 285 287 283 286
258 240 237 232 223 221 225 220 213 211 218 225 228 229 204 193 194 189 191 196 206 218 222 199 214 218 224 230 240 254 264 274 283 287 284 281 287 290 291 294 291 289 275